Regional Weather Roundup
Issued by NWS

Home | Current Version | Previous Version | Text Only | Print | Product List | Glossary On
Versions: 1 2 3 4 5 6 7 8 9 10 11 12 13 14 15 16 17 18 19 20 21 22 23 24 25 26 27 28
000
ASUS46 KSEW 261610
RWRWA

WASHINGTON REGIONAL WEATHER ROUNDUP
NATIONAL WEATHER SERVICE SEATTLE WA
900 AM PDT SUN MAR 26 2017

NOTE:"FAIR" INDICATES FEW OR NO CLOUDS BELOW 12,000 FEET WITH NO
SIGNIFICANT WEATHER AND/OR OBSTRUCTIONS TO VISIBILITY.

WAZ507-509-555>559-261700-
SEATTLE, TACOMA, EVERETT, AND VICINITY

CITY           SKY/WX    TMP DP  RH WIND       PRES   REMARKS
EVERETT        LGT RAIN  43  38  82 SE13      29.84S
BOEING FIELD   LGT RAIN  45  44  97 SE5       29.85F
RENTON         LGT RAIN  45  42  89 S6        29.85F
SEATAC AIRPORT LGT RAIN  45  40  82 E10       29.84F
JBLM-MCCHORD   LGT RAIN  44  44  99 CALM      29.84S
PUYALLUP         N/A     45  43  93 CALM      29.83F
BREMERTON      CLOUDY    39  37  93 CALM      29.87S
JBLM-FT LEWIS  LGT RAIN  43  43 100 SE3       29.83F
TACOMA NARROWS LGT RAIN  43  42  97 CALM      29.84F FOG
$$

WAZ001-503-506-510-514-515-261700-
NORTH INTERIOR

CITY           SKY/WX    TMP DP  RH WIND       PRES   REMARKS
BELLINGHAM     LGT RAIN  43  39  86 CALM      29.82F
FRIDAY HARBOR  LGT RAIN  47  39  74 E21G28    29.81F
EASTSOUND      LGT RAIN  46  37  71 SE10      29.80S
PORT ANGELES   CLOUDY    40  40 100 CALM      29.76F
EDIZ HOOK      CLOUDY    43  38  85 SW5       29.76F
PORT TOWNSEND  CLOUDY    45  39  81 SE12G21   29.81F
NAS WHIDBEY    LGT RAIN  47  37  68 SE14      29.85F
ARLINGTON      CLOUDY    43  36  75 CALM      29.87S
BURLINGTON     PTSUNNY   45  39  81 NE6       29.83F
$$

WAZ020-022-039-040-504-511-512-261700-
SOUTHWEST INTERIOR

CITY           SKY/WX    TMP DP  RH WIND       PRES   REMARKS
SHELTON        RAIN      41  40  96 N3        29.82S FOG
OLYMPIA        LGT RAIN  43  41  93 S6        29.84S FOG
CHEHALIS       LGT RAIN  45  43  93 S8        29.83S
KELSO          LGT RAIN  45  41  86 SE16G22   29.86S
VANCOUVER      LGT RAIN  45  44  97 SE6       29.88F
SCAPPOOSE, OR  LGT RAIN  44  41  89 S12G17    29.87S
PORTLAND, OR   LGT RAIN  44  42  93 SE9       29.89S
$$

WAZ021-516-517-261700-
WASHINGTON COAST

CITY           SKY/WX    TMP DP  RH WIND       PRES   REMARKS
FORKS          LGT RAIN  41  39  93 SE10      29.73F
HOQUIAM        LGT RAIN  43  42  97 E13       29.77F FOG
ASTORIA, OR    LGT RAIN  44  40  85 E8        29.76F
$$

WAZ019-023-024-040-567>569-261700-
CASCADE MOUNTAINS AND COLUMBIA GORGE

CITY           SKY/WX    TMP DP  RH WIND       PRES   REMARKS
STAMPEDE PASS  NOT AVBL
TROUTDALE, OR  LGT RAIN  45  43  93 E6        29.89F
THE DALLES, OR LGT RAIN  43  40  89 CALM      29.91F
$$

WAZ026-027-041>044-520-521-261700-
EAST SLOPES

CITY           SKY/WX    TMP DP  RH WIND       PRES   REMARKS
OMAK           CLOUDY    39  26  59 CALM      29.91F
WENATCHEE      CLOUDY    38  33  82 CALM      29.90R
ELLENSBURG     CLOUDY    38  32  79 CALM      29.87S
YAKIMA         CLOUDY    42  34  73 CALM      29.89F
SUNNYSIDE ARPT CLOUDY    41  36  81 CALM      29.90S
$$

WAZ028-034-035-261700-
COLUMBIA BASIN

CITY           SKY/WX    TMP DP  RH WIND       PRES   REMARKS
EPHRATA        CLOUDY    39  30  70 N8        29.90S
MOSES LAKE     CLOUDY    39  34  82 N7        29.90S
PASCO          CLOUDY    44  38  79 CALM      29.90F
HERMISTON, OR  CLOUDY    42  40  92 NW3       29.87F
$$

WAZ036>038-261700-
NORTHEAST WASHINGTON

CITY           SKY/WX    TMP DP  RH WIND       PRES   REMARKS
SPOKANE GEIGER PTSUNNY   39  32  76 E7        29.90F
SPOKANE FELTS  SUNNY     42  35  76 CALM      29.92F
FAIRCHILD AFB  PTSUNNY   39  37  91 E9        29.89S
COEURDALENE,ID SUNNY     39  33  79 N12       29.92F
DEER PARK      MOSUNNY   40  32  73 MISG      29.92F
$$

WAZ029>033-261700-
SOUTHEAST WASHINGTON

CITY           SKY/WX    TMP DP  RH WIND       PRES   REMARKS
PULLMAN        MOSUNNY   42  33  70 E15       29.89F
LEWISTON, ID   PTSUNNY   44  36  73 E10       29.91F
WALLA WALLA    CLOUDY    47  40  76 CALM      29.86F
PENDLETON, OR  CLOUDY    42  38  85 CALM      29.85F
$$




USA.gov is the U.S. government's official web portal to all federal, state and local government web resources and services.